IRIDIUM 47 DEB, 40249

Orbit data source: Space-Track

IRIDIUM 47 DEB, 40249 is space debris in LEO originally from a launch on Sat, 20 Dec 1997 UTC launched from the Air Force Western Test Range (AFWTR). Debris objects in space refer to the collection of defunct objects orbiting the Earth. Examples of debris include non-operational satellites, rocket bodies, and fragments generated from explosions, collisions, or faulty payload assembly.

Loading next visibility...
Identifier
40249, 1997-082J
Orbit
LEO
Country
Flag of USUS
Related business
Manufacturer
Unknown
Mission
Spacecraft
Bus & Motor
Unknown
Mass
Unknown
Launch date (UTC)
1997-12-20 (28 years ago)
Launch vehicle
Unknown
Launch site
Air Force Western Test Range (AFWTR)
Object type
Payload
Rocket body
Debris
Shape & HBR
Unknown shape, 0.1 m
Radar Cross Section
Small (<0.1 m²)

Expand to show TLE details & history
Last TLE update: 14 hours ago

TLE from 14 hours ago
0 IRIDIUM 47 DEB
1 40249U 97082J   25310.69225564  .00002464  00000-0  74643-3 0  9998
2 40249  86.3931  46.0458 0002325 108.7989 251.3463 14.41946142582850
Epoch: 2025-11-06T16:36Z
TLE epoch observation values (Epoch: 2025-11-06T16:36:50.887Z)
Latitude
-0.00006°
Longitude
110.68684°
Altitude
755.668 km
Speed
7.476 km/s
True Right ascension
03h 04m 10s
True Declination
0° 00' 00"
Sunlit
Object was in full shadow at epoch
Visualization orbit readout
Latitude
Unknown
Longitude
Unknown
Altitude
Unknown
Speed
Unknown
Apparent Right ascension
Unknown
Apparent Declination
Unknown
Sunlit
N/A
Visualization observer readout
Local Sidereal Time
02:31:30
Azimuth
Unknown
Elevation
Unknown
Doppler factor
Unknown
Orbital elements
Apogee altitude
750.686 km
Perigee altitude
747.372 km
Semi-major axis
7,127.166 km
Eccentricity
0.00023
Inclination
86.3931°
RAAN
46.0458°
Arg. of periapsis
108.7989°
True anomaly
251.32106°
Mean anomaly
251.3463°
Eccentric anomaly
251.33368°
Mean motion
3.60718 °/min
Orbital period
99.8 mins
BSTAR
0.00074643
Loading maneuver chart data...
Computing Atmospheric mass density...

Documentation

Showing up to 5 results
|